Simultaneous Nadir Overpasses (SNOs) Predictions

Prediction of SNOs between LANDSAT-8 and NOAA-19 Satellite Orbit:

Table of predicted SNOs for the next 14.0 days since TLE Epoch: 6/14/2024
Index Date (LANDSAT-8) Time (LANDSAT-8) Lat,Lon (LANDSAT-8) SZA (LANDSAT-8 ) Date (NOAA-19) Time (NOAA-19) Lat,Lon (NOAA-19) SZA (NOAA-19 ) Distance(km) Time Diff (sec)
1 06/16/2024 09:34:26 80.69, 70.62 58.99 06/16/2024 09:34:09 80.70, 70.73 59.00 2.07 17
2 06/18/2024 15:57:39 80.69, -25.18 58.93 06/18/2024 15:57:03 80.69, -25.05 58.93 2.37 36
3 06/18/2024 16:47:05 -80.72, 142.80 121.02 06/18/2024 16:48:02 -80.72, 142.79 121.00 0.69 57
4 06/20/2024 22:20:52 80.68,-121.11 58.88 06/20/2024 22:19:58 80.67,-121.25 58.84 2.68 54
5 06/20/2024 23:10:18 -80.71, 46.89 121.06 06/20/2024 23:10:56 -80.70, 46.75 121.07 2.69 38
6 06/23/2024 04:44:04 80.66, 142.82 58.84 06/23/2024 04:42:51 80.66, 142.84 58.82 0.42 73
7 06/23/2024 05:33:30 -80.69, -49.16 121.10 06/23/2024 05:33:48 -80.70, -49.00 121.07 3.09 18
8 06/25/2024 11:56:42 -80.69,-145.01 121.06 06/25/2024 11:56:42 -80.68,-145.17 121.09 3.00 0
9 06/27/2024 18:19:54 -80.67, 119.01 121.02 06/27/2024 18:19:35 -80.67, 118.94 121.03 1.13 19



Historial Predications of SNOs between LANDSAT-8 and NOAA-19
